| time (UTC) | temp F | wind direction | speed knots | gust knots | rain 1hr in | rain 24hr in | rain mn in | humidity % | barometer mb |
| 20260502163750 | 53 | 65 | 1.7 | 4.3 | 0.00 | 0.00 | 0.00 | 45 | 1018.9 |
| 20260502163247 | 53 | 102 | 0.9 | 4.3 | 0.00 | 0.00 | 0.00 | 52 | 1019.1 |
| 20260502162744 | 54 | 84 | 0.0 | 1.7 | 0.00 | 0.00 | 0.00 | 49 | 1019.0 |
| 20260502162241 | 52 | 129 | 1.7 | 2.6 | 0.00 | 0.00 | 0.00 | 44 | 1019.2 |
| 20260502161737 | 53 | 17 | 3.5 | 5.2 | 0.00 | 0.00 | 0.00 | 46 | 1019.2 |
| 20260502161233 | 51 | 95 | 0.9 | 2.6 | 0.00 | 0.00 | 0.00 | 49 | 1019.3 |
| 20260502160732 | 50 | 44 | 0.9 | 2.6 | 0.00 | 0.00 | 0.00 | 50 | 1019.4 |
| 20260502160231 | 51 | 275 | 2.6 | 5.2 | 0.00 | 0.00 | 0.00 | 53 | 1019.3 |
| 20260502152155 | 50 | 129 | 0.9 | 1.7 | 0.00 | 0.00 | 0.00 | 51 | 1019.3 |
| 20260502151652 | 49 | 281 | 1.7 | 4.3 | 0.00 | 0.00 | 0.00 | 50 | 1019.5 |
| 20260502151149 | 50 | 50 | 2.6 | 2.6 | 0.00 | 0.00 | 0.00 | 52 | 1019.4 |
| 20260502150647 | 51 | 104 | 0.9 | 2.6 | 0.00 | 0.00 | 0.00 | 52 | 1019.4 |
| 20260502150143 | 49 | 339 | 0.9 | 1.7 | 0.00 | 0.00 | 0.00 | 51 | 1019.3 |
| 20260502140106 | 46 | 42 | 1.7 | 2.6 | 0.00 | 0.00 | 0.00 | 66 | 1019.7 |
| 20260502130532 | 38 | 116 | 0.0 | 0.0 | 0.00 | 0.00 | 0.00 | 98 | 1019.4 |
| 20260502123515 | 35 | 82 | 0.0 | 0.0 | 0.00 | 0.00 | 0.00 | 99 | 1019.4 |
| 20260502123011 | 35 | 88 | 0.0 | 0.0 | 0.00 | 0.00 | 0.00 | 99 | 1019.4 |
| 20260502122508 | 34 | 89 | 0.0 | 0.9 | 0.00 | 0.00 | 0.00 | 99 | 1019.3 |
| 20260502122006 | 34 | 95 | 0.0 | 0.0 | 0.00 | 0.00 | 0.00 | 99 | 1019.3 |
| 20260502121503 | 33 | 92 | 0.0 | 0.0 | 0.00 | 0.00 | 0.00 | 99 | 1019.2 |
| 20260502121000 | 33 | 99 | 0.0 | 0.0 | 0.00 | 0.00 | 0.00 | 99 | 1019.2 |
| 20260502120456 | 32 | 97 | 0.0 | 0.0 | 0.00 | 0.00 | 0.00 | 99 | 1019.1 |
| 20260502115450 | 32 | 98 | 0.0 | 0.0 | 0.00 | 0.00 | 0.00 | 99 | 1019.2 |
| 20260502114946 | 32 | 97 | 0.0 | 0.0 | 0.00 | 0.00 | 0.00 | 99 | 1019.2 |
| 20260502114443 | 31 | 96 | 0.0 | 0.0 | 0.00 | 0.00 | 0.00 | 99 | 1018.9 |
| 20260502113941 | 30 | 96 | 0.0 | 0.0 | 0.00 | 0.00 | 0.00 | 99 | 1018.8 |
| 20260502113438 | 30 | 94 | 0.0 | 0.0 | 0.00 | 0.00 | 0.00 | 99 | 1018.8 |
| 20260502112937 | 30 | 99 | 0.0 | 0.0 | 0.00 | 0.00 | 0.00 | 99 | 1018.9 |
| 20260502112434 | 30 | 99 | 0.0 | 0.0 | 0.00 | 0.00 | 0.00 | 99 | 1019.0 |
| 20260502111931 | 29 | 99 | 0.0 | 0.0 | 0.00 | 0.00 | 0.00 | 99 | 1018.6 |
| 20260502111428 | 29 | 99 | 0.0 | 0.0 | 0.00 | 0.00 | 0.00 | 99 | 1018.7 |
| 20260502110926 | 29 | 99 | 0.0 | 0.0 | 0.00 | 0.00 | 0.00 | 99 | 1018.8 |
| 20260502110423 | 29 | 97 | 0.0 | 0.0 | 0.00 | 0.00 | 0.00 | 99 | 1018.6 |
| 20260502105920 | 29 | 98 | 0.0 | 0.0 | 0.00 | 0.00 | 0.00 | 99 | 1018.8 |
| 20260502105417 | 29 | 98 | 0.0 | 0.0 | 0.00 | 0.00 | 0.00 | 99 | 1018.8 |
| 20260502104915 | 29 | 97 | 0.0 | 0.0 | 0.00 | 0.00 | 0.00 | 99 | 1018.6 |
| 20260502104407 | 29 | 96 | 0.0 | 0.0 | 0.00 | 0.00 | 0.00 | 99 | 1018.4 |
| 20260502103904 | 29 | 96 | 0.0 | 0.0 | 0.00 | 0.00 | 0.00 | 99 | 1018.5 |
| 20260502103402 | 29 | 96 | 0.0 | 0.0 | 0.00 | 0.00 | 0.00 | 99 | 1018.7 |
| 20260502102858 | 29 | 96 | 0.0 | 0.0 | 0.00 | 0.00 | 0.00 | 99 | 1018.7 |
| 20260502102355 | 29 | 94 | 0.0 | 0.0 | 0.00 | 0.00 | 0.00 | 99 | 1018.6 |
| 20260502101852 | 29 | 94 | 0.0 | 0.0 | 0.00 | 0.00 | 0.00 | 99 | 1018.6 |
| 20260502101351 | 29 | 95 | 0.0 | 0.0 | 0.00 | 0.00 | 0.00 | 99 | 1018.6 |
| 20260502100849 | 29 | 96 | 0.0 | 0.0 | 0.00 | 0.00 | 0.00 | 99 | 1018.7 |
| 20260502100348 | 29 | 96 | 0.0 | 0.0 | 0.00 | 0.00 | 0.00 | 99 | 1018.7 |
| 20260502091321 | 30 | 94 | 0.0 | 0.0 | 0.00 | 0.00 | 0.00 | 99 | 1018.6 |
| 20260502090819 | 30 | 97 | 0.0 | 0.0 | 0.00 | 0.00 | 0.00 | 99 | 1018.5 |
| 20260502090315 | 29 | 94 | 0.0 | 0.0 | 0.00 | 0.00 | 0.00 | 99 | 1018.6 |
| 20260502071211 | 30 | 101 | 0.0 | 0.0 | 0.00 | 0.00 | 0.00 | 99 | 1018.5 |
| 20260502070709 | 30 | 102 | 0.0 | 0.0 | 0.00 | 0.00 | 0.00 | 99 | 1018.7 |
| 20260502070206 | 31 | 93 | 0.0 | 0.0 | 0.00 | 0.00 | 0.00 | 99 | 1018.7 |
| 20260502065705 | 31 | 99 | 0.0 | 0.0 | 0.00 | 0.00 | 0.00 | 99 | 1018.7 |
| 20260502065202 | 31 | 99 | 0.0 | 0.0 | 0.00 | 0.00 | 0.00 | 99 | 1018.9 |
| 20260502064701 | 31 | 93 | 0.0 | 0.0 | 0.00 | 0.00 | 0.00 | 99 | 1018.7 |
| 20260502064157 | 31 | 103 | 0.0 | 0.0 | 0.00 | 0.00 | 0.00 | 99 | 1018.9 |
| 20260502063655 | 31 | 98 | 0.0 | 0.0 | 0.00 | 0.00 | 0.00 | 98 | 1018.9 |
| 20260502063153 | 31 | 95 | 0.0 | 0.0 | 0.00 | 0.00 | 0.00 | 98 | 1019.1 |
| 20260502062650 | 31 | 98 | 0.0 | 0.0 | 0.00 | 0.00 | 0.00 | 98 | 1018.8 |
| 20260502062147 | 31 | 90 | 0.0 | 0.0 | 0.00 | 0.00 | 0.00 | 98 | 1019.1 |
| 20260502061645 | 31 | 95 | 0.0 | 0.0 | 0.00 | 0.00 | 0.00 | 98 | 1019.0 |
| 20260502061143 | 32 | 95 | 0.0 | 0.0 | 0.00 | 0.00 | 0.00 | 98 | 1018.8 |
| 20260502060643 | 31 | 94 | 0.0 | 0.0 | 0.00 | 0.00 | 0.00 | 98 | 1019.1 |
| 20260502060140 | 31 | 95 | 0.0 | 0.0 | 0.00 | 0.00 | 0.00 | 97 | 1019.1 |
| 20260502055637 | 31 | 95 | 0.0 | 0.0 | 0.00 | 0.00 | 0.00 | 97 | 1019.0 |
| 20260502055135 | 32 | 95 | 0.0 | 0.0 | 0.00 | 0.00 | 0.00 | 97 | 1019.0 |
| 20260502054634 | 32 | 94 | 0.0 | 0.0 | 0.00 | 0.00 | 0.00 | 97 | 1019.0 |
| 20260502054131 | 32 | 92 | 0.0 | 0.0 | 0.00 | 0.00 | 0.00 | 97 | 1018.9 |
| 20260502053628 | 32 | 97 | 0.0 | 0.0 | 0.00 | 0.00 | 0.00 | 96 | 1019.2 |
| 20260502053125 | 32 | 95 | 0.0 | 0.0 | 0.00 | 0.00 | 0.00 | 96 | 1018.9 |
| 20260502052624 | 32 | 97 | 0.0 | 0.0 | 0.00 | 0.00 | 0.00 | 96 | 1019.2 |
| 20260502052122 | 32 | 96 | 0.0 | 0.0 | 0.00 | 0.00 | 0.00 | 96 | 1019.1 |
| 20260502051619 | 32 | 96 | 0.0 | 0.0 | 0.00 | 0.00 | 0.00 | 95 | 1019.1 |
| 20260502051117 | 32 | 96 | 0.0 | 0.0 | 0.00 | 0.00 | 0.00 | 95 | 1019.0 |
| 20260502050614 | 32 | 95 | 0.0 | 0.0 | 0.00 | 0.00 | 0.00 | 95 | 1019.0 |
| 20260502050110 | 32 | 95 | 0.0 | 0.0 | 0.00 | 0.00 | 0.00 | 95 | 1019.0 |
| 20260502045606 | 32 | 95 | 0.0 | 0.0 | 0.00 | 0.01 | 0.01 | 95 | 1019.0 |
| 20260502045104 | 32 | 95 | 0.0 | 0.0 | 0.00 | 0.01 | 0.01 | 95 | 1019.3 |
| 20260502044600 | 33 | 96 | 0.0 | 0.0 | 0.00 | 0.01 | 0.01 | 94 | 1019.3 |
| 20260502044057 | 33 | 96 | 0.0 | 0.0 | 0.00 | 0.01 | 0.01 | 94 | 1019.1 |
| 20260502043555 | 33 | 94 | 0.0 | 0.0 | 0.00 | 0.01 | 0.01 | 94 | 1019.2 |
| 20260502043050 | 33 | 96 | 0.0 | 0.0 | 0.00 | 0.01 | 0.01 | 94 | 1019.2 |
| 20260502042545 | 33 | 97 | 0.0 | 0.0 | 0.00 | 0.01 | 0.01 | 93 | 1019.1 |
| 20260502042043 | 33 | 102 | 0.0 | 0.0 | 0.00 | 0.01 | 0.01 | 93 | 1019.1 |
| 20260502041541 | 33 | 96 | 0.0 | 0.0 | 0.00 | 0.01 | 0.01 | 92 | 1019.2 |
| 20260502041038 | 33 | 96 | 0.0 | 0.0 | 0.00 | 0.01 | 0.01 | 92 | 1018.9 |
| 20260502040534 | 33 | 96 | 0.0 | 0.0 | 0.00 | 0.01 | 0.01 | 91 | 1019.1 |
| 20260502040031 | 33 | 95 | 0.0 | 0.0 | 0.00 | 0.01 | 0.01 | 91 | 1019.0 |
| 20260502035527 | 34 | 95 | 0.0 | 0.0 | 0.00 | 0.01 | 0.01 | 90 | 1019.0 |
| 20260502035025 | 34 | 96 | 0.0 | 0.0 | 0.00 | 0.01 | 0.01 | 89 | 1018.9 |
| 20260502034523 | 34 | 95 | 0.0 | 0.0 | 0.00 | 0.01 | 0.01 | 89 | 1018.7 |
| 20260502034021 | 34 | 96 | 0.0 | 0.0 | 0.00 | 0.01 | 0.01 | 88 | 1019.0 |
| 20260502033519 | 35 | 96 | 0.0 | 0.0 | 0.00 | 0.01 | 0.01 | 88 | 1018.7 |
| 20260502033016 | 35 | 96 | 0.0 | 0.0 | 0.00 | 0.01 | 0.01 | 87 | 1018.8 |
| 20260502032511 | 35 | 95 | 0.0 | 0.0 | 0.00 | 0.01 | 0.01 | 87 | 1018.7 |
| 20260502032009 | 36 | 96 | 0.0 | 0.0 | 0.00 | 0.01 | 0.01 | 86 | 1018.8 |
| 20260502031507 | 36 | 95 | 0.0 | 0.0 | 0.00 | 0.01 | 0.01 | 85 | 1019.0 |
| 20260502031004 | 36 | 95 | 0.0 | 0.0 | 0.00 | 0.01 | 0.01 | 84 | 1018.7 |
| 20260502030503 | 37 | 96 | 0.0 | 0.0 | 0.00 | 0.01 | 0.01 | 84 | 1018.8 |
| 20260502030000 | 37 | 91 | 0.0 | 0.0 | 0.00 | 0.01 | 0.01 | 83 | 1018.7 |
| 20260502025457 | 37 | 89 | 0.0 | 0.9 | 0.00 | 0.01 | 0.01 | 83 | 1018.6 |
| 20260502024955 | 37 | 86 | 0.0 | 0.0 | 0.00 | 0.01 | 0.01 | 83 | 1018.8 |
| 20260502024452 | 37 | 91 | 0.0 | 0.0 | 0.00 | 0.01 | 0.01 | 83 | 1018.7 |
| 20260502023951 | 37 | 79 | 0.0 | 0.9 | 0.00 | 0.01 | 0.01 | 83 | 1018.5 |
| 20260502023448 | 37 | 88 | 0.9 | 1.7 | 0.00 | 0.01 | 0.01 | 83 | 1018.5 |
| 20260502022945 | 37 | 67 | 0.9 | 0.9 | 0.00 | 0.01 | 0.01 | 83 | 1018.5 |
| 20260502022441 | 38 | 84 | 0.9 | 0.9 | 0.00 | 0.01 | 0.01 | 83 | 1018.6 |
| 20260502021939 | 38 | 81 | 0.9 | 2.6 | 0.00 | 0.01 | 0.01 | 82 | 1018.5 |
| 20260502021436 | 38 | 73 | 0.9 | 1.7 | 0.00 | 0.01 | 0.01 | 82 | 1018.4 |
| 20260502020933 | 38 | 52 | 2.6 | 2.6 | 0.00 | 0.01 | 0.01 | 82 | 1018.4 |
| 20260502020431 | 38 | 88 | 1.7 | 2.6 | 0.00 | 0.01 | 0.01 | 81 | 1018.1 |
| 20260502015927 | 39 | 65 | 0.9 | 1.7 | 0.00 | 0.01 | 0.01 | 80 | 1017.9 |
| 20260502015425 | 39 | 80 | 0.9 | 1.7 | 0.00 | 0.01 | 0.01 | 78 | 1018.1 |
| 20260502014922 | 39 | 60 | 1.7 | 1.7 | 0.00 | 0.01 | 0.01 | 76 | 1018.2 |
| 20260502014419 | 39 | 77 | 0.0 | 1.7 | 0.00 | 0.01 | 0.01 | 75 | 1018.1 |
| 20260502013915 | 39 | 84 | 0.9 | 1.7 | 0.00 | 0.01 | 0.01 | 74 | 1017.9 |
| 20260502013410 | 40 | 76 | 0.9 | 5.2 | 0.00 | 0.01 | 0.01 | 74 | 1018.0 |
| 20260502012907 | 40 | 62 | 1.7 | 1.7 | 0.00 | 0.01 | 0.01 | 74 | 1017.8 |
| 20260502012405 | 40 | 73 | 0.9 | 1.7 | 0.00 | 0.01 | 0.01 | 74 | 1017.7 |
| 20260502011903 | 40 | 88 | 0.9 | 4.3 | 0.00 | 0.01 | 0.01 | 74 | 1017.4 |
| 20260502011358 | 40 | 48 | 1.7 | 1.7 | 0.00 | 0.01 | 0.01 | 74 | 1017.7 |
| 20260502010855 | 41 | 43 | 1.7 | 2.6 | 0.00 | 0.01 | 0.01 | 74 | 1017.3 |
| 20260502010352 | 41 | 39 | 1.7 | 2.6 | 0.00 | 0.01 | 0.01 | 75 | 1017.2 |
| 20260502005849 | 41 | 108 | 0.9 | 4.3 | 0.00 | 0.01 | 0.01 | 75 | 1017.2 |
| 20260502005347 | 42 | 46 | 1.7 | 2.6 | 0.00 | 0.01 | 0.01 | 74 | 1017.3 |
| 20260502004844 | 42 | 79 | 0.9 | 2.6 | 0.00 | 0.01 | 0.01 | 74 | 1017.2 |
| 20260502004340 | 42 | 27 | 1.7 | 5.2 | 0.00 | 0.01 | 0.01 | 74 | 1017.1 |
| 20260502003838 | 43 | 41 | 2.6 | 4.3 | 0.00 | 0.01 | 0.01 | 74 | 1017.1 |
| 20260502003334 | 43 | 102 | 0.9 | 2.6 | 0.00 | 0.01 | 0.01 | 74 | 1017.0 |
| 20260502002831 | 44 | 58 | 0.9 | 4.3 | 0.00 | 0.01 | 0.01 | 73 | 1016.8 |
| 20260502002328 | 44 | 80 | 1.7 | 2.6 | 0.00 | 0.01 | 0.01 | 73 | 1016.9 |
| 20260502001825 | 44 | 66 | 1.7 | 2.6 | 0.00 | 0.01 | 0.01 | 74 | 1016.7 |
| 20260502001323 | 45 | 87 | 0.9 | 0.9 | 0.00 | 0.01 | 0.01 | 74 | 1016.7 |
| 20260502000821 | 45 | 58 | 0.9 | 1.7 | 0.00 | 0.01 | 0.01 | 74 | 1016.8 |
| 20260502000319 | 45 | 75 | 0.9 | 0.9 | 0.00 | 0.01 | 0.01 | 74 | 1016.8 |
| 20260501235814 | 45 | 75 | 1.7 | 1.7 | 0.00 | 0.01 | 0.01 | 74 | 1016.7 |
| 20260501235310 | 45 | 65 | 0.9 | 1.7 | 0.00 | 0.01 | 0.01 | 73 | 1016.7 |
| 20260501234805 | 45 | 79 | 0.9 | 0.9 | 0.00 | 0.01 | 0.01 | 74 | 1016.7 |
| 20260501234303 | 45 | 52 | 0.9 | 1.7 | 0.00 | 0.01 | 0.01 | 73 | 1016.5 |
| 20260501233801 | 45 | 123 | 0.9 | 1.7 | 0.00 | 0.01 | 0.01 | 73 | 1016.6 |
| 20260501233258 | 46 | 94 | 1.7 | 1.7 | 0.00 | 0.01 | 0.01 | 72 | 1016.6 |
| 20260501232754 | 45 | 80 | 1.7 | 2.6 | 0.00 | 0.01 | 0.01 | 71 | 1016.7 |
| 20260501232251 | 46 | 90 | 0.9 | 1.7 | 0.00 | 0.01 | 0.01 | 72 | 1016.6 |
| 20260501231749 | 46 | 47 | 0.9 | 1.7 | 0.00 | 0.01 | 0.01 | 72 | 1017.0 |
| 20260501231247 | 46 | 78 | 0.9 | 2.6 | 0.00 | 0.01 | 0.01 | 72 | 1016.7 |
| 20260501230745 | 46 | 56 | 0.9 | 2.6 | 0.00 | 0.01 | 0.01 | 72 | 1016.8 |
| 20260501230243 | 47 | 83 | 1.7 | 2.6 | 0.00 | 0.01 | 0.01 | 73 | 1016.7 |
| 20260501225740 | 46 | 71 | 0.9 | 1.7 | 0.00 | 0.01 | 0.01 | 72 | 1016.9 |
| 20260501225238 | 46 | 40 | 3.5 | 5.2 | 0.00 | 0.01 | 0.01 | 72 | 1016.9 |
| 20260501224733 | 46 | 93 | 1.7 | 2.6 | 0.00 | 0.01 | 0.01 | 72 | 1016.8 |
| 20260501224231 | 46 | 42 | 1.7 | 1.7 | 0.00 | 0.01 | 0.01 | 72 | 1016.9 |
| 20260501223727 | 46 | 45 | 0.9 | 1.7 | 0.00 | 0.01 | 0.01 | 72 | 1016.9 |
| 20260501223224 | 46 | 40 | 0.9 | 1.7 | 0.00 | 0.01 | 0.01 | 71 | 1016.7 |
| 20260501222720 | 46 | 75 | 0.9 | 2.6 | 0.00 | 0.01 | 0.01 | 70 | 1016.8 |
| 20260501222217 | 46 | 68 | 0.9 | 1.7 | 0.00 | 0.01 | 0.01 | 71 | 1016.9 |
| 20260501221714 | 47 | 64 | 0.9 | 1.7 | 0.00 | 0.01 | 0.01 | 71 | 1016.7 |
| 20260501221211 | 47 | 62 | 2.6 | 2.6 | 0.00 | 0.01 | 0.01 | 71 | 1016.9 |
| 20260501220709 | 47 | 57 | 0.9 | 1.7 | 0.00 | 0.01 | 0.01 | 70 | 1016.6 |
| 20260501220206 | 47 | 83 | 0.9 | 0.9 | 0.00 | 0.01 | 0.01 | 70 | 1016.7 |
| 20260501215703 | 47 | 11 | 1.7 | 1.7 | 0.00 | 0.01 | 0.01 | 69 | 1016.6 |
| 20260501215158 | 47 | 61 | 1.7 | 2.6 | 0.00 | 0.01 | 0.01 | 69 | 1016.5 |
| 20260501214653 | 47 | 72 | 0.9 | 2.6 | 0.00 | 0.01 | 0.01 | 68 | 1016.5 |
| 20260501214149 | 47 | 52 | 0.9 | 1.7 | 0.00 | 0.01 | 0.01 | 70 | 1016.6 |
| 20260501213646 | 47 | 69 | 1.7 | 2.6 | 0.00 | 0.01 | 0.01 | 68 | 1016.6 |
| 20260501213142 | 48 | 67 | 0.9 | 2.6 | 0.00 | 0.01 | 0.01 | 66 | 1016.5 |
| 20260501212639 | 48 | 167 | 0.9 | 1.7 | 0.00 | 0.01 | 0.01 | 65 | 1016.4 |
| 20260501212135 | 50 | 75 | 0.9 | 1.7 | 0.00 | 0.01 | 0.01 | 58 | 1016.3 |
| 20260501211632 | 50 | 73 | 0.9 | 1.7 | 0.00 | 0.01 | 0.01 | 59 | 1016.6 |
| 20260501211130 | 49 | 63 | 1.7 | 1.7 | 0.00 | 0.01 | 0.01 | 59 | 1016.4 |
| 20260501210626 | 49 | 157 | 0.9 | 2.6 | 0.00 | 0.01 | 0.01 | 60 | 1016.3 |
| 20260501210123 | 49 | 66 | 0.9 | 2.6 | 0.00 | 0.01 | 0.01 | 58 | 1016.4 |
| 20260501205619 | 49 | 250 | 1.7 | 1.7 | 0.00 | 0.01 | 0.01 | 59 | 1016.5 |
| 20260501205117 | 49 | 82 | 1.7 | 1.7 | 0.00 | 0.01 | 0.01 | 59 | 1016.5 |
| 20260501204613 | 48 | 54 | 0.9 | 2.6 | 0.00 | 0.01 | 0.01 | 58 | 1016.7 |
| 20260501204109 | 48 | 42 | 1.7 | 2.6 | 0.00 | 0.01 | 0.01 | 59 | 1016.4 |
| 20260501203606 | 48 | 269 | 2.6 | 2.6 | 0.00 | 0.01 | 0.01 | 58 | 1016.5 |
| 20260501203104 | 48 | 74 | 1.7 | 1.7 | 0.00 | 0.01 | 0.01 | 61 | 1016.6 |
| 20260501202601 | 48 | 86 | 0.9 | 1.7 | 0.00 | 0.01 | 0.01 | 58 | 1016.6 |
| 20260501202057 | 48 | 317 | 3.5 | 6.1 | 0.00 | 0.01 | 0.01 | 56 | 1016.5 |
| 20260501201554 | 48 | 41 | 0.9 | 1.7 | 0.00 | 0.01 | 0.01 | 59 | 1016.6 |
| 20260501201050 | 49 | 353 | 3.5 | 5.2 | 0.00 | 0.01 | 0.01 | 56 | 1016.5 |
| 20260501200548 | 49 | 43 | 1.7 | 1.7 | 0.00 | 0.01 | 0.01 | 59 | 1016.5 |
| 20260501200045 | 49 | 54 | 0.9 | 1.7 | 0.00 | 0.01 | 0.01 | 59 | 1016.7 |
| 20260501195543 | 49 | 91 | 0.9 | 1.7 | 0.00 | 0.01 | 0.01 | 54 | 1016.6 |
| 20260501195038 | 48 | 56 | 0.9 | 1.7 | 0.00 | 0.01 | 0.01 | 54 | 1016.6 |
| 20260501194533 | 48 | 87 | 0.9 | 1.7 | 0.00 | 0.01 | 0.01 | 56 | 1016.3 |
| 20260501194030 | 49 | 75 | 2.6 | 2.6 | 0.00 | 0.01 | 0.01 | 56 | 1016.5 |
| 20260501193527 | 49 | 91 | 0.9 | 1.7 | 0.00 | 0.01 | 0.01 | 56 | 1016.3 |
| 20260501193026 | 49 | 67 | 0.9 | 1.7 | 0.00 | 0.01 | 0.01 | 55 | 1016.4 |
| 20260501192522 | 50 | 69 | 0.9 | 1.7 | 0.00 | 0.01 | 0.01 | 54 | 1016.4 |
| 20260501192020 | 49 | 132 | 0.9 | 1.7 | 0.00 | 0.01 | 0.01 | 54 | 1016.3 |
| 20260501191517 | 49 | 89 | 2.6 | 4.3 | 0.00 | 0.01 | 0.01 | 53 | 1016.1 |
| 20260501191014 | 49 | 38 | 0.9 | 2.6 | 0.00 | 0.01 | 0.01 | 56 | 1016.3 |
| 20260501190510 | 49 | 45 | 1.7 | 2.6 | 0.00 | 0.01 | 0.01 | 53 | 1016.0 |
| 20260501190005 | 49 | 70 | 0.9 | 1.7 | 0.00 | 0.01 | 0.01 | 54 | 1016.0 |
| 20260501185501 | 50 | 25 | 1.7 | 4.3 | 0.00 | 0.01 | 0.01 | 56 | 1016.2 |
| 20260501184958 | 50 | 59 | 0.9 | 2.6 | 0.00 | 0.01 | 0.01 | 55 | 1016.2 |
| 20260501184454 | 50 | 21 | 2.6 | 4.3 | 0.00 | 0.01 | 0.01 | 54 | 1015.9 |
| 20260501183949 | 50 | 292 | 1.7 | 4.3 | 0.00 | 0.01 | 0.01 | 54 | 1015.9 |
| 20260501183446 | 50 | 339 | 1.7 | 4.3 | 0.00 | 0.01 | 0.01 | 57 | 1016.1 |
| 20260501182942 | 50 | 57 | 1.7 | 2.6 | 0.00 | 0.01 | 0.01 | 53 | 1015.9 |
| 20260501182439 | 50 | 354 | 1.7 | 2.6 | 0.00 | 0.01 | 0.01 | 54 | 1015.9 |
| 20260501181936 | 51 | 243 | 2.6 | 2.6 | 0.00 | 0.01 | 0.01 | 57 | 1015.9 |
| 20260501181433 | 50 | 74 | 0.9 | 4.3 | 0.00 | 0.01 | 0.01 | 53 | 1015.9 |
| 20260501180930 | 50 | 56 | 1.7 | 4.3 | 0.00 | 0.01 | 0.01 | 54 | 1015.9 |
| 20260501180427 | 50 | 45 | 1.7 | 4.3 | 0.00 | 0.01 | 0.01 | 58 | 1015.8 |
| 20260501175923 | 50 | 336 | 1.7 | 4.3 | 0.00 | 0.01 | 0.01 | 55 | 1015.9 |
| 20260501175421 | 50 | 46 | 0.9 | 2.6 | 0.00 | 0.01 | 0.01 | 54 | 1015.9 |
| 20260501174917 | 50 | 261 | 3.5 | 5.2 | 0.00 | 0.01 | 0.01 | 53 | 1015.8 |
| 20260501174415 | 51 | 323 | 2.6 | 4.3 | 0.00 | 0.01 | 0.01 | 57 | 1015.9 |
| 20260501173912 | 50 | 350 | 3.5 | 4.3 | 0.00 | 0.01 | 0.01 | 55 | 1016.0 |
| 20260501173410 | 49 | 53 | 1.7 | 4.3 | 0.00 | 0.01 | 0.01 | 56 | 1016.1 |
| 20260501172905 | 49 | 86 | 1.7 | 1.7 | 0.00 | 0.01 | 0.01 | 57 | 1015.8 |
| 20260501172401 | 49 | 54 | 0.9 | 1.7 | 0.00 | 0.01 | 0.01 | 58 | 1015.9 |
| 20260501171856 | 50 | 26 | 2.6 | 4.3 | 0.00 | 0.01 | 0.01 | 57 | 1016.0 |
| 20260501171353 | 51 | 144 | 1.7 | 5.2 | 0.00 | 0.01 | 0.01 | 58 | 1015.6 |
| 20260501170850 | 49 | 251 | 0.9 | 1.7 | 0.00 | 0.01 | 0.01 | 60 | 1016.0 |
| 20260501170347 | 49 | 44 | 2.6 | 4.3 | 0.00 | 0.01 | 0.01 | 56 | 1016.1 |
| 20260501165845 | 50 | 80 | 0.9 | 4.3 | 0.00 | 0.01 | 0.01 | 55 | 1015.8 |
| 20260501165342 | 51 | 342 | 1.7 | 4.3 | 0.00 | 0.01 | 0.01 | 61 | 1015.9 |
| 20260501164839 | 51 | 99 | 0.9 | 1.7 | 0.00 | 0.01 | 0.01 | 57 | 1015.9 |
| 20260501164337 | 50 | 66 | 1.7 | 2.6 | 0.00 | 0.01 | 0.01 | 57 | 1015.9 |
| 20260501163833 | 51 | 11 | 1.7 | 5.2 | 0.00 | 0.01 | 0.01 | 57 | 1015.8 |